Falls City, NE

12:43 AM CDT on May 30, 2017 (GMT -0500)
Brenner

Weather History for KFNB - March, 2013

Change the Weather History Date:

Thursday, March 21, 2013

  Actual Average Record
Temperature  
Mean Temperature 28 °F -  
Max Temperature 36 °F 55 °F 80 °F (2011)
Min Temperature 19 °F 30 °F 6 °F (1951)
Degree Days  
Heating Degree Days 38    
Moisture  
Dew Point 14 °F    
Average Humidity 56    
Maximum Humidity 71    
Minimum Humidity 39    
Precipitation  
Precipitation 0.00 in - - ()
Sea Level Pressure  
Sea Level Pressure 30.03 in    
Wind  
Wind Speed 7 mph (ESE)    
Max Wind Speed 16 mph    
Max Gust Speed -    
Visibility 10 miles    
Events      
Averages and records for this station are not official NWS values.
T = Trace of Precipitation, MM = Missing Value Source: NWS Daily Summary

Daily Weather History Graph

Daily Weather History Graph

Search for Another Location

Airport or City:

Trip Planner

Search our weather history database for the weather conditions in past years. The results will help you decide how hot, cold, wet, or windy it might be!

Date:

Astronomy

Mar. 21, 2013 Rise Set
Actual Time 7:23 AM CDT 7:35 PM CDT
Civil Twilight 6:56 AM CDT 8:02 PM CDT
Nautical Twilight 6:24 AM CDT 8:34 PM CDT
Astronomical Twilight 5:52 AM CDT 9:06 PM CDT
Moon 2:06 PM CDT (3/21) 3:46 AM CDT (3/21)
Length of Visible Light 13h 06m
Length of Day
12h 12m
Waxing Gibbous, 69% of the Moon is Illuminated
Mar 21
Waxing Gibbous
Mar 27
Full
Apr 2
Last Quarter
Apr 10
New
Apr 18
First Quarter

Hourly Weather History & Observations

Time (CDT) Temp. Windchill Dew Point Humidity Pressure Visibility Wind Dir Wind Speed Gust Speed Precip Events Conditions
12:53 AM 21.9 °F 17.2 °F 9.0 °F 58% 30.14 in 10.0 mi SE 3.5 mph - N/A   Clear
1:53 AM 21.9 °F - 9.0 °F 58% 30.14 in 10.0 mi Calm Calm - N/A   Clear
2:53 AM 19.0 °F - 10.0 °F 68% 30.13 in 10.0 mi Calm Calm - N/A   Clear
3:53 AM 21.0 °F 12.4 °F 12.9 °F 71% 30.09 in 10.0 mi East 6.9 mph - N/A   Clear
4:53 AM 24.1 °F 14.4 °F 12.0 °F 60% 30.07 in 10.0 mi East 9.2 mph - N/A   Mostly Cloudy
5:53 AM 25.0 °F 16.3 °F 12.0 °F 58% 30.07 in 10.0 mi ESE 8.1 mph - N/A   Mostly Cloudy
6:53 AM 24.1 °F 14.4 °F 12.0 °F 60% 30.09 in 10.0 mi ESE 9.2 mph - N/A   Overcast
7:53 AM 25.0 °F 15.5 °F 12.0 °F 58% 30.08 in 10.0 mi ESE 9.2 mph - N/A   Overcast
8:53 AM 25.0 °F 15.5 °F 12.0 °F 58% 30.07 in 10.0 mi ESE 9.2 mph - N/A   Overcast
9:53 AM 26.1 °F 13.6 °F 12.0 °F 55% 30.05 in 10.0 mi ESE 16.1 mph - N/A   Overcast
10:53 AM 27.0 °F 16.7 °F 12.0 °F 53% 30.04 in 10.0 mi ESE 11.5 mph - N/A   Overcast
11:53 AM 28.0 °F 17.5 °F 12.0 °F 51% 30.04 in 10.0 mi East 12.7 mph - N/A   Overcast
12:53 PM 30.0 °F 19.1 °F 12.9 °F 49% 30.01 in 10.0 mi ESE 15.0 mph - N/A   Overcast
1:53 PM 32.0 °F 22.1 °F 12.9 °F 45% 29.98 in 10.0 mi ESE 13.8 mph - N/A   Overcast
2:53 PM 33.1 °F 25.5 °F 12.9 °F 43% 29.96 in 10.0 mi East 9.2 mph - N/A   Overcast
3:53 PM 36.0 °F 28.0 °F 14.0 °F 41% 29.94 in 10.0 mi ESE 11.5 mph - N/A   Overcast
4:53 PM 36.0 °F 26.7 °F 12.9 °F 39% 29.93 in 10.0 mi East 15.0 mph - N/A   Overcast
5:53 PM 34.0 °F 25.5 °F 12.9 °F 42% 29.93 in 10.0 mi East 11.5 mph - N/A   Overcast
6:53 PM 32.0 °F 25.6 °F 19.0 °F 59% 29.96 in 10.0 mi SE 6.9 mph - N/A   Overcast
7:53 PM 30.9 °F 24.3 °F 19.9 °F 64% 29.97 in 10.0 mi SE 6.9 mph - N/A   Overcast
8:53 PM 30.0 °F 23.2 °F 19.9 °F 66% 29.99 in 10.0 mi SSE 6.9 mph - N/A   Overcast
9:53 PM 30.0 °F 25.2 °F 19.0 °F 64% 29.99 in 10.0 mi ESE 4.6 mph - N/A   Overcast
10:53 PM 30.0 °F - 19.9 °F 66% 30.00 in 10.0 mi Calm Calm - N/A   Overcast
11:53 PM 30.0 °F 25.2 °F 19.9 °F 66% 30.00 in 10.0 mi NE 4.6 mph - N/A   Overcast